GW3608 Weather Reports


Display with metric or nautical units.
time (UTC)temp
F
wind
direction
speed
MPH
gust
MPH
rain 1hr
in
rain 24hr
in
rain mn
in
humidity
%
barometer
mb
20260903090027 64 272 0.0 0.0 0.07 1.47 0.60 96 1016.1
20260903084525 64 272 0.0 1.0 0.08 1.45 0.58 96 1015.9
20260903083025 64 272 0.0 0.0 0.09 1.44 0.57 96 1015.9
20260903081532 64 272 0.0 1.0 0.09 1.42 0.55 96 1015.9
20260903080013 64 273 0.0 0.0 0.10 1.40 0.52 96 1015.9
20260903074518 64 273 0.0 0.0 0.10 1.37 0.50 96 1015.9
20260903073032 64 273 0.0 0.0 0.11 1.35 0.48 96 1016.1
20260903071536 64 273 0.0 0.0 0.12 1.33 0.46 96 1016.1
20260903070030 64 167 0.0 1.0 0.12 1.30 0.43 96 1016.0
20260903064516 64 220 0.0 0.0 0.12 1.27 0.40 96 1016.0
20260903063023 64 220 0.0 0.0 0.13 1.24 0.37 96 1016.1
20260903061539 64 248 0.0 1.0 0.13 1.21 0.34 95 1016.3
20260903060033 64 232 0.0 1.0 0.14 1.17 0.31 95 1016.7
20260903054532 65 167 0.0 0.0 0.15 1.15 0.28 95 1016.5
20260903053018 65 166 0.0 0.0 0.15 1.11 0.24 95 1016.3
20260903051525 65 144 0.0 2.0 0.16 1.08 0.21 95 1016.6
20260903050021 65 210 0.0 2.0 0.17 1.04 0.17 95 1016.5
20260903044508 66 182 0.0 3.0 0.17 1.00 0.13 95 1016.4
20260903043016 66 244 0.0 4.0 0.17 0.96 0.09 95 1017.7
20260903041531 66 182 0.0 6.0 0.17 0.92 0.05 95 1018.5
20260903040320 67 298 0.0 4.0 0.17 0.87 0.00 95 1019.5
20260903034510 67 267 0.0 3.0 0.18 0.83 0.83 95 1017.1
20260903033010 67 199 0.0 1.0 0.19 0.79 0.79 95 1016.7
20260903031518 67 217 0.0 4.0 0.20 0.75 0.75 95 1017.5
20260903030026 67 229 0.0 2.0 0.21 0.70 0.70 95 1017.8
20260903024508 66 285 0.0 3.0 0.17 0.65 0.65 95 1018.8
20260903023008 66 261 0.0 2.0 0.14 0.60 0.60 94 1018.7
20260903021514 66 153 0.0 9.0 0.10 0.55 0.55 93 1018.4
20260903020022 68 23 8.0 24.0 0.04 0.49 0.49 93 1020.1
20260903014532 68 257 0.0 1.0 0.04 0.48 0.48 93 1018.1
20260903013008 68 98 0.0 1.0 0.02 0.46 0.46 93 1018.0
20260903011510 68 217 0.0 5.0 0.01 0.45 0.45 93 1018.1
20260903010016 68 177 0.0 7.0 0.01 0.45 0.45 93 1017.6
20260903004539 68 233 0.0 5.0 0.00 0.44 0.44 93 1017.5
20260903003031 68 134 0.0 3.0 0.00 0.44 0.44 93 1017.4
20260903001509 69 146 0.0 5.0 0.00 0.44 0.44 93 1017.6
20260903000017 69 203 0.0 5.0 0.00 0.44 0.44 93 1017.3
20260902234523 69 155 0.0 4.0 0.00 0.44 0.44 93 1017.6
20260902233027 69 165 0.0 4.0 0.00 0.44 0.44 93 1017.7
20260902231528 69 196 0.0 3.0 0.00 0.44 0.44 93 1017.6
20260902230014 69 130 0.0 3.0 0.00 0.44 0.44 93 1017.5
20260902224520 69 134 0.0 3.0 0.00 0.44 0.44 94 1017.3
20260902223029 69 103 0.0 4.0 0.00 0.44 0.44 94 1017.3
20260902221530 69 141 0.0 3.0 0.00 0.44 0.44 94 1017.5
20260902220032 69 114 0.0 2.0 0.00 0.44 0.44 94 1017.8
20260902214525 69 150 0.0 2.0 0.00 0.44 0.44 94 1018.1
20260902213028 69 182 0.0 2.0 0.00 0.44 0.44 95 1018.1
20260902211523 69 153 0.0 3.0 0.00 0.44 0.44 95 1018.0
20260902210034 69 169 0.0 3.0 0.00 0.44 0.44 95 1018.1
20260902204532 69 206 0.0 4.0 0.02 0.44 0.44 95 1018.1
20260902203025 69 169 0.0 3.0 0.03 0.44 0.44 96 1017.9
20260902201522 69 129 1.0 4.0 0.05 0.44 0.44 96 1017.9
20260902200010 69 166 0.0 4.0 0.06 0.44 0.44 96 1018.4
20260902194508 68 142 0.0 1.0 0.05 0.42 0.42 96 1018.8
20260902193016 69 142 0.0 3.0 0.06 0.41 0.41 96 1018.8
20260902191536 68 44 0.0 2.0 0.05 0.39 0.39 96 1018.9
20260902190005 68 38 0.0 2.0 0.06 0.38 0.38 96 1018.8
20260902184516 68 5 0.0 2.0 0.06 0.37 0.37 96 1018.7
20260902183015 68 26 0.0 3.0 0.06 0.35 0.35 96 1018.8
20260902181516 68 94 0.0 1.0 0.07 0.34 0.34 96 1018.9
20260902180030 67 142 0.0 2.0 0.06 0.33 0.32 96 1019.4
20260902174507 67 53 0.0 3.0 0.07 0.34 0.31 96 1019.6
20260902173008 67 147 0.0 5.0 0.07 0.34 0.29 96 1019.9
20260902171515 67 160 0.0 2.0 0.07 0.35 0.27 96 1019.9
20260902170024 67 165 0.0 3.0 0.08 0.37 0.26 96 1020.1
20260902164527 67 100 0.0 3.0 0.09 0.38 0.24 96 1020.1
20260902163005 68 273 1.0 4.0 0.09 0.41 0.22 96 1020.1
20260902161515 68 44 0.0 2.0 0.10 0.43 0.20 96 1020.1
20260902160015 68 234 0.0 2.0 0.10 0.47 0.18 96 1019.5
20260902154527 68 137 0.0 2.0 0.10 0.50 0.15 96 1019.6
20260902153027 69 186 0.0 3.0 0.11 0.54 0.13 96 1019.9
20260902151511 69 217 0.0 1.0 0.10 0.57 0.10 96 1019.6
20260902150017 69 193 0.0 4.0 0.08 0.61 0.08 96 1019.9
20260902144527 69 163 0.0 5.0 0.05 0.65 0.05 96 1019.5
20260902143025 69 145 0.0 3.0 0.02 0.70 0.02 96 1019.5
20260902141531 69 175 0.0 0.0 0.00 0.76 0.00 96 1019.5
20260902140014 70 168 0.0 0.0 0.00 0.84 0.00 96 1019.7
20260902134518 70 218 0.0 0.0 0.00 0.93 0.00 96 1020.0
20260902133025 69 196 0.0 0.0 0.00 1.01 0.00 96 1019.6
20260902131526 69 171 0.0 0.0 0.00 1.09 0.00 96 1019.6
20260902130033 70 150 0.0 0.0 0.00 1.16 0.00 96 1019.4
20260902124514 70 142 0.0 0.0 0.00 1.26 0.00 96 1019.4
20260902123024 69 219 0.0 0.0 0.00 1.35 0.00 97 1019.4
20260902121524 69 152 0.0 0.0 0.00 1.40 0.00 97 1019.2
20260902120030 69 232 0.0 0.0 0.00 1.41 0.00 97 1018.9
20260902114532 69 184 0.0 0.0 0.00 1.42 0.00 97 1018.9
20260902113018 69 192 0.0 0.0 0.00 1.42 0.00 97 1018.7
20260902111534 69 184 0.0 0.0 0.00 1.43 0.00 96 1018.7
20260902110013 69 138 0.0 0.0 0.00 1.43 0.00 97 1018.6
20260902104508 68 211 0.0 0.0 0.00 1.44 0.00 96 1018.8
20260902103016 68 211 0.0 0.0 0.00 1.46 0.00 96 1018.8
20260902101522 68 284 0.0 0.0 0.00 1.46 0.00 96 1018.9
20260902100004 68 209 0.0 0.0 0.00 1.46 0.00 96 1018.8
20260902094509 69 148 0.0 0.0 0.00 1.46 0.00 96 1018.8
20260902093012 69 208 0.0 0.0 0.00 1.46 0.00 96 1018.9
20260902091518 69 213 0.0 0.0 0.00 1.46 0.00 96 1018.8